x

Big Bay, Mi (bigm4) Weather Station

12:40pm - Thu 25th Dec 2014 All times are CST. -6 hours from GMT.

  • Wind
    3mph, 8mph gusts
  • Air Temp 37°f
  • Sea Pressure 1004.4mb
  • Big Bay, Mi
  • Big Bay, Mi

More Historic Weather Station data

Upgrade to MSW Pro to gain access to the past 30 days of data for over 8000 Wavebouys and Weather Stations around the globe.

Join Pro

Comparision Forecast

View Surf forecast
   
Thu 12/25 12:40pm 3 8 mph 1004.4mb 37f
12:30pm 5 9 mph 1004.4mb 37f
12:20pm 6 9 mph 1004.4mb 37f
12:10pm 6 10 mph 1004.1mb 37f
12:00pm 5 11 mph 1004.1mb 37f
11:40am 3 9 mph 1004.1mb 37f
11:30am 2 8 mph 1004.1mb 37f
11:20am 6 9 mph 1004.1mb 37f
11:10am 3 8 mph 1004.1mb 37f
11:00am 3 10 mph 1004.1mb 37f
10:40am 1 3 mph 1003.7mb 37f
10:30am 2 6 mph 1003.7mb 37f
10:20am  -  6 mph 1003.7mb 36f
10:10am 1 6 mph 1003.4mb 36f
10:00am 3 6 mph 1003.4mb 36f
9:40am 3 7 mph 1003mb 35f
9:30am 1 3 mph 1002.7mb 35f
9:20am 2 5 mph 1002.7mb 35f
9:10am 2 6 mph 1002.7mb 35f
9:00am 2 6 mph 1002.4mb 35f
8:40am 3 7 mph 1002mb 34f
8:30am 3 8 mph 1002mb 34f
8:20am 6 11 mph 1002mb 34f
8:10am 3 11 mph 1001.7mb 34f
8:00am 5 9 mph 1001.7mb 34f
7:40am 5 10 mph 1001mb 34f
7:30am 3 8 mph 1001mb 34f
7:20am 3 6 mph 1000.7mb 34f
7:10am 1 7 mph 1000.3mb 34f
7:00am 5 8 mph 1000.3mb 34f
6:40am 3 13 mph 1000.3mb 34f
6:30am 5 13 mph 999.7mb 34f
6:20am 3 10 mph 999.7mb 34f
6:10am 5 13 mph 999.3mb 34f
6:00am 5 13 mph 999.3mb 34f
5:40am 6 17 mph 999.3mb 34f
5:30am 6 16 mph 999mb 34f
5:20am 6 10 mph 999mb 34f
5:10am 2 8 mph 999mb 34f
5:00am 6 11 mph 998.6mb 34f
4:40am 7 13 mph 998.3mb 34f
4:30am 5 11 mph 998.3mb 34f
4:20am 3 14 mph 998.3mb 34f
4:10am 7 11 mph 998mb 34f
4:00am 6 8 mph 998mb 33f
3:40am 5 9 mph 998mb 33f
3:30am 2 6 mph 997.6mb 33f
3:20am 2 7 mph 997.6mb 33f
3:10am 2 7 mph 997.6mb 33f
3:00am 6 10 mph 997.6mb 33f
2:40am 3 8 mph 997.6mb 33f
2:30am 3 8 mph 997.3mb 33f
2:20am 5 9 mph 997.3mb 33f
2:10am 3 8 mph 997.3mb 33f
2:00am 5 8 mph 997.3mb 33f
1:40am 5 9 mph 996.6mb 33f
1:30am 6 11 mph 996.6mb 33f
1:20am 6 10 mph 996.6mb 33f
1:10am 6 14 mph 996.3mb 33f
1:00am 5 13 mph 996.3mb 33f
12:40am 6 16 mph 995.9mb 33f
12:30am 7 13 mph 995.9mb 33f
12:20am 3 11 mph 995.9mb 33f
12:10am 7 10 mph 995.9mb 33f
12:00am 8 13 mph 995.9mb 33f
Wed 12/24 11:40pm 5 8 mph 995.9mb 33f
11:30pm 7 11 mph 995.9mb 33f
11:20pm 3 10 mph 995.6mb 32f
11:10pm 5 11 mph 995.6mb 33f
11:00pm 5 13 mph 995.6mb 33f
10:40pm 7 11 mph 995.6mb 33f
10:30pm 5 13 mph 995.3mb 33f
10:20pm 2 13 mph 995.3mb 32f
10:10pm 6 10 mph 995.3mb 32f
10:00pm 5 9 mph 995.3mb 32f
9:40pm 7 10 mph 995.3mb 32f
9:30pm 6 9 mph 995.6mb 32f
9:20pm 5 9 mph 995.9mb 32f
9:10pm 5 11 mph 995.9mb 32f
9:00pm 8 11 mph 995.9mb 32f
8:40pm 2 11 mph 996.3mb 32f
8:30pm 3 9 mph 996.3mb 32f
8:20pm 5 8 mph 996.3mb 32f
8:10pm 3 11 mph 996.3mb 33f
8:00pm 5 11 mph 996.3mb 33f
7:40pm 8 11 mph 996.6mb 33f
7:30pm 8 11 mph 997mb 33f
7:20pm 8 10 mph 997mb 33f
7:10pm 9 15 mph 997mb 33f
7:00pm 10 14 mph 997.3mb 33f
6:40pm 13 17 mph 997.3mb 33f
6:30pm 9 14 mph 997.3mb 33f
6:20pm 10 17 mph 997.6mb 33f
6:10pm 11 15 mph 997.6mb 33f
6:00pm 13 17 mph 997.6mb 33f
5:40pm 11 16 mph 998mb 32f
5:30pm 7 16 mph 998mb 32f
5:20pm 10 15 mph 998mb 32f
5:10pm 11 15 mph 998mb 32f
5:00pm 11 17 mph 998.3mb 32f
4:40pm 9 11 mph 998.3mb 33f
4:30pm 7 10 mph 998.3mb 32f
4:20pm 3 10 mph 998.3mb 32f
4:10pm 2 8 mph 998.3mb 32f
4:00pm 5 8 mph 998.3mb 32f
3:40pm 2 6 mph 998.6mb 32f
3:30pm 3 6 mph 998.6mb 31f
3:20pm 3 7 mph 998.6mb 32f
3:10pm 2 7 mph 998.6mb 32f
3:00pm 5 6 mph 999mb 32f
2:40pm 3 6 mph 999mb 32f
2:30pm 5 7 mph 999mb 32f
2:20pm 3 7 mph 999.3mb 32f
2:10pm 6 10 mph 999.3mb 32f
2:00pm 7 11 mph 999.3mb 32f
1:50pm 8 13 mph 999.3mb 32f
1:40pm 9 13 mph 999.3mb 32f
1:30pm 8 13 mph 999.7mb 32f
1:20pm 6 14 mph 999.7mb 32f
1:10pm 8 14 mph 1000mb 32f
1:00pm 9 14 mph 1000.3mb 32f
12:50pm 9 13 mph 1000.3mb 32f
12:40pm 9 14 mph 1000.7mb 32f
12:30pm 8 13 mph 1000.7mb 33f
12:20pm 10 13 mph 1000.7mb 32f
12:10pm 8 13 mph 1001mb 33f
12:00pm 11 14 mph 1001.4mb 33f
11:50am 11 16 mph 1001.7mb 33f
11:40am 13 17 mph 1001.4mb 33f
11:30am 10 13 mph 1002mb 33f
11:20am 11 15 mph 1002mb 33f
11:10am 11 14 mph 1002.4mb 33f
11:00am 11 15 mph 1002.7mb 33f
10:50am 8 11 mph 1002.7mb 33f
10:40am 8 11 mph 1003mb 32f
10:30am 9 14 mph 1003.4mb 33f
10:20am 13 14 mph 1003.7mb 33f
10:10am 9 13 mph 1004.1mb 33f
10:00am 10 14 mph 1003.7mb 33f
9:50am 11 15 mph 1004.1mb 33f
9:40am 13 15 mph 1004.1mb 33f
9:30am 11 14 mph 1004.4mb 33f
9:20am 11 14 mph 1004.7mb 33f
9:10am 11 14 mph 1004.4mb 33f
9:00am 10 14 mph 1004.4mb 34f
8:50am 10 13 mph 1004.4mb 34f
8:40am 9 11 mph 1004.7mb 34f
8:30am 8 11 mph 1004.7mb 34f
8:20am 9 13 mph 1005.1mb 34f
8:10am 9 13 mph 1005.1mb 34f
8:00am 11 16 mph 1004.7mb 34f
7:50am 13 15 mph 1004.7mb 34f
7:40am 13 14 mph 1004.7mb 34f
7:30am 11 16 mph 1004.7mb 34f
7:20am 11 15 mph 1005.1mb 34f
7:10am 13 15 mph 1004.7mb 34f
7:00am 13 15 mph 1004.7mb 34f
6:50am 11 15 mph 1005.1mb 34f
6:40am 13 16 mph 1004.7mb 35f
6:30am 14 17 mph 1004.7mb 35f
6:20am 13 15 mph 1004.7mb 35f
6:10am 13 15 mph 1004.7mb 35f
6:00am 10 11 mph 1005.1mb 35f
5:50am 9 13 mph 1005.1mb 35f
5:40am 13 14 mph 1005.1mb 35f
5:30am 11 14 mph 1005.1mb 35f
5:20am 13 15 mph 1005.1mb 35f
5:10am 11 14 mph 1005.1mb 35f
5:00am 10 13 mph 1005.4mb 35f
4:50am 11 14 mph 1005.4mb 35f
4:40am 11 14 mph 1005.4mb 35f
4:30am 10 14 mph 1005.4mb 35f
4:20am 10 15 mph 1005.4mb 35f
4:10am 13 15 mph 1005.4mb 35f
4:00am 10 13 mph 1005.8mb 35f
3:50am 10 14 mph 1005.8mb 35f
3:40am 14 15 mph 1005.8mb 35f
3:30am 13 14 mph 1006.1mb 35f
3:20am 13 15 mph 1005.8mb 35f
3:10am 14 16 mph 1005.8mb 35f
3:00am 13 15 mph 1005.8mb 36f
2:50am 14 15 mph 1005.8mb 36f
2:40am 10 15 mph 1006.1mb 36f
2:30am 13 14 mph 1006.1mb 36f
2:20am 10 15 mph 1006.1mb 36f
2:10am 11 14 mph 1005.8mb 36f
2:00am 11 14 mph 1005.8mb 36f
1:50am 11 14 mph 1005.8mb 36f
1:40am 11 14 mph 1005.8mb 36f
1:30am 11 15 mph 1005.8mb 36f
1:20am 14 15 mph 1006.1mb 36f
1:10am 5 8 mph 1006.4mb 34f
1:00am  -  5 mph 1006.8mb 34f
12:50am 2 3 mph 1006.8mb 34f
12:40am 3 5 mph 1007.1mb 34f
12:30am 2 3 mph 1007.1mb 34f
12:20am 2 7 mph 1007.1mb 34f
12:10am 3 6 mph 1007.1mb 34f
12:00am 5 6 mph 1007.1mb 34f
Tue 12/23 11:50pm 3 7 mph 1006.8mb 34f
11:40pm 5 7 mph 1006.4mb 34f
11:30pm 3 6 mph 1006.4mb 34f
11:20pm 3 7 mph 1006.4mb 34f
11:10pm 3 9 mph 1006.4mb 34f
11:00pm 3 8 mph 1006.4mb 34f
10:50pm 3 8 mph 1006.4mb 34f
10:40pm 3 7 mph 1006.4mb 34f
10:30pm 3 7 mph 1006.4mb 34f
10:20pm 3 5 mph 1006.8mb 33f
10:10pm 2 6 mph 1007.1mb 33f
10:00pm 3 7 mph 1006.8mb 33f
9:50pm 2 5 mph 1006.8mb 33f
9:40pm 2 5 mph 1006.8mb 33f
9:30pm 2 3 mph 1006.4mb 33f
9:20pm 2 3 mph 1006.8mb 33f
9:10pm 2 3 mph 1006.8mb 33f
9:00pm 1 3 mph 1006.4mb 33f
8:50pm 2 5 mph 1006.4mb 33f
8:40pm 2 3 mph 1006.4mb 33f
8:30pm 3
mph
1006.1mb 33f
8:20pm 2 3 mph 1005.8mb 32f
8:10pm 2
mph
1005.8mb 32f
8:00pm  -  1 mph 1005.8mb 32f
7:50pm  -  1 mph 1005.8mb 32f
7:40pm  -  1 mph 1005.8mb 32f
7:30pm  -  1 mph 1005.8mb 32f
7:20pm  -  1 mph 1005.8mb 32f
7:10pm  -  mph 1006.1mb 32f
7:00pm  -  mph 1006.1mb 32f
6:50pm  -  1 mph 1006.1mb 32f
6:40pm  -  1 mph 1006.1mb 32f
6:30pm  -  mph 1006.1mb 32f
6:20pm  -  mph 1006.1mb 32f
6:10pm  -  3 mph 1006.1mb 32f
6:00pm  -  1 mph 1005.8mb 33f
5:50pm  -  mph 1005.8mb 33f
5:40pm  -  1 mph 1005.8mb 33f
5:30pm  -  5 mph 1005.8mb 33f
5:20pm  -  5 mph 1005.8mb 33f
5:10pm  -  1 mph 1005.4mb 33f
5:00pm  -  1 mph 1005.4mb 33f
4:50pm  -  1 mph 1005.4mb 33f
4:40pm  -  2 mph 1005.4mb 33f
4:30pm  -  3 mph 1005.4mb 33f
4:20pm  -  2 mph 1005.4mb 33f
4:10pm  -  2 mph 1005.4mb 33f
4:00pm  -  3 mph 1005.4mb 33f
3:50pm  -  2 mph 1005.4mb 33f
3:40pm  -  6 mph 1005.4mb 33f
3:30pm 2 6 mph 1005.1mb 33f
3:20pm  -  1 mph 1005.1mb 33f
3:10pm  -  2 mph 1005.1mb 33f
3:00pm  -  3 mph 1005.4mb 33f
2:50pm  -  5 mph 1005.1mb 33f
2:40pm 1 8 mph 1005.4mb 33f
2:30pm 2 6 mph 1005.1mb 33f
2:20pm 1 7 mph 1005.1mb 33f
2:10pm 3 6 mph 1005.4mb 33f
2:00pm  -  7 mph 1005.4mb 33f
1:50pm  -  8 mph 1005.4mb 33f
10:40am 1 6 mph 1006.8mb 33f
10:30am 1 8 mph 1007.1mb 33f
10:20am 3 11 mph 1007.5mb 33f
10:10am 2 9 mph 1007.5mb 33f
10:00am 5 15 mph 1007.5mb 33f
9:50am 6 10 mph 1007.8mb 33f
9:40am 3 10 mph 1007.8mb 33f
9:30am 6 10 mph 1007.8mb 33f
9:20am 3 13 mph 1007.8mb 33f
9:10am 3 9 mph 1007.8mb 33f
9:00am 6 10 mph 1007.8mb 33f
8:50am 3 7 mph 1007.8mb 33f
8:40am 6 10 mph 1007.8mb 33f
8:30am 5 9 mph 1007.8mb 33f
8:20am 3 11 mph 1007.8mb 33f
8:10am 3 11 mph 1007.8mb 33f
8:00am 6 11 mph 1008.1mb 33f
7:50am 5 10 mph 1007.8mb 33f
7:40am 3 13 mph 1007.8mb 33f
7:30am 3 9 mph 1007.8mb 33f
7:20am 5 9 mph 1007.8mb 33f
7:10am 5 9 mph 1007.8mb 33f
7:00am 5 10 mph 1008.1mb 33f
6:50am 5 10 mph 1008.1mb 33f
6:40am 3 9 mph 1008.1mb 33f
6:30am 5 13 mph 1008.1mb 33f
6:20am 5 9 mph 1008.1mb 33f
6:10am 5 9 mph 1008.1mb 33f
6:00am 5 11 mph 1008.1mb 33f
5:50am 3 10 mph 1008.1mb 33f
5:40am 6 9 mph 1008.1mb 33f
5:30am 6 13 mph 1008.1mb 33f
5:20am 6 11 mph 1008.1mb 33f
5:10am 5 9 mph 1008.1mb 33f
5:00am 5 13 mph 1008.1mb 33f
4:50am 3 11 mph 1008.1mb 33f
4:40am 5 8 mph 1008.1mb 33f
4:30am 6 9 mph 1008.1mb 33f
4:20am 6 9 mph 1008.1mb 33f
4:10am 5 9 mph 1008.5mb 33f
4:00am 5 8 mph 1008.5mb 33f
3:50am 6 10 mph 1008.5mb 32f
3:40am 6 11 mph 1008.8mb 33f
3:30am 6 9 mph 1008.8mb 32f
3:20am 5 10 mph 1008.8mb 32f
3:10am 5 9 mph 1008.8mb 33f
3:00am 3 10 mph 1008.8mb 33f
2:50am 5 11 mph 1009.1mb 32f
2:40am 6 10 mph 1009.1mb 32f
2:30am 8 14 mph 1009.1mb 32f
2:20am 5 10 mph 1009.1mb 32f
2:10am 5 13 mph 1009.1mb 32f
2:00am 5 10 mph 1009.5mb 32f
1:50am 6 11 mph 1009.1mb 32f
1:40am 5 13 mph 1009.1mb 32f
1:30am 6 9 mph 1009.5mb 32f
1:20am 7 11 mph 1009.5mb 32f
1:10am 6 13 mph 1009.5mb 32f
1:00am 5 10 mph 1009.5mb 32f
12:50am 7 10 mph 1009.5mb 32f
12:40am 5 10 mph 1009.5mb 32f
12:30am 5 9 mph 1009.5mb 32f
12:20am 7 13 mph 1009.8mb 32f
12:10am 5 8 mph 1009.8mb 32f
12:00am 8 11 mph 1010.2mb 32f
Mon 12/22 11:50pm 5 9 mph 1010.2mb 32f
11:40pm 6 13 mph 1010.2mb 32f
11:30pm 6 13 mph 1010.2mb 32f
11:20pm 5 11 mph 1010.2mb 32f
11:10pm 8 14 mph 1010.2mb 32f
11:00pm 5 9 mph 1010.2mb 32f
10:50pm 5 8 mph 1010.2mb 31f
10:40pm 5 9 mph 1010.2mb 32f
10:30pm 5 9 mph 1010.2mb 32f
10:20pm 6 9 mph 1010.2mb 32f
10:10pm 6 10 mph 1010.2mb 32f
10:00pm 6 11 mph 1010.2mb 32f
9:50pm 7 11 mph 1010.2mb 32f
9:40pm 6 10 mph 1010.2mb 32f
9:30pm 5 9 mph 1010.2mb 32f
9:20pm 6 9 mph 1010.2mb 32f
9:10pm 5 9 mph 1010.2mb 33f
9:00pm 2 8 mph 1010.2mb 33f
8:50pm 5 8 mph 1010.2mb 33f
8:40pm 3 9 mph 1010.2mb 33f
8:30pm 6 9 mph 1010.2mb 33f
8:20pm 6 9 mph 1010.2mb 34f
8:10pm 5 8 mph 1010.2mb 34f
8:00pm 5 9 mph 1010.2mb 34f
7:50pm 6 10 mph 1010.2mb 33f
7:40pm 6 8 mph 1010.2mb 33f
7:30pm 6 9 mph 1010.2mb 33f
7:20pm 6 8 mph 1010.2mb 33f
7:10pm 5 9 mph 1010.2mb 33f
7:00pm 7 13 mph 1010.2mb 33f
6:50pm 6 11 mph 1010.2mb 34f
6:40pm 6 10 mph 1010.2mb 34f
6:30pm 7 10 mph 1010.2mb 34f
6:20pm 7 10 mph 1010.2mb 34f
6:10pm 6 9 mph 1010.2mb 33f
6:00pm 7 10 mph 1010.2mb 34f
5:50pm 8 13 mph 1009.8mb 34f
5:40pm 6 13 mph 1010.2mb 34f
5:30pm 6 9 mph 1009.8mb 34f
5:20pm 7 9 mph 1009.8mb 34f
5:10pm 5 10 mph 1009.8mb 34f
5:00pm 6 11 mph 1010.2mb 34f
4:50pm 6 9 mph 1010.2mb 34f
4:40pm 6 9 mph 1010.2mb 35f
4:30pm 6 10 mph 1010.2mb 35f
4:20pm 7 9 mph 1010.2mb 35f
4:10pm 6 10 mph 1010.2mb 35f
4:00pm 7 11 mph 1009.8mb 35f
3:50pm 8 13 mph 1009.8mb 35f
3:40pm 7 9 mph 1009.8mb 35f
3:30pm 7 9 mph 1009.8mb 35f
3:20pm 7 10 mph 1009.8mb 35f
3:10pm 6 11 mph 1009.5mb 35f
3:00pm 6 11 mph 1009.5mb 35f
2:50pm 6 10 mph 1009.5mb 36f
2:40pm 6 11 mph 1009.5mb 36f
2:30pm 6 10 mph 1009.5mb 36f
2:20pm 7 11 mph 1009.5mb 36f
2:10pm 7 13 mph 1009.5mb 36f
2:00pm 7 15 mph 1009.5mb 36f
1:50pm 9 14 mph 1009.1mb 36f
1:40pm 7 10 mph 1009.1mb 36f
1:30pm 6 9 mph 1009.1mb 36f
1:20pm 6 11 mph 1009.1mb 37f
1:10pm 7 11 mph 1009.1mb 37f
1:00pm 6 10 mph 1009.1mb 37f
12:50pm 7 13 mph 1009.1mb 37f
12:40pm 7 13 mph 1009.5mb 37f
12:30pm 7 11 mph 1009.5mb 37f
12:20pm 6 13 mph 1009.5mb 37f
12:10pm 9 17 mph 1009.5mb 37f
12:00pm 10 18 mph 1009.5mb 37f
11:50am 11 17 mph 1009.8mb 37f
11:40am 9 14 mph 1009.8mb 36f
11:30am 8 14 mph 1010.2mb 37f
11:20am 9 14 mph 1010.2mb 37f
11:10am 10 15 mph 1010.2mb 37f
11:00am 10 14 mph 1010.5mb 37f
10:50am 8 15 mph 1010.5mb 37f
10:40am 10 16 mph 1010.8mb 37f
10:30am 10 14 mph 1010.8mb 37f
10:20am 6 11 mph 1010.8mb 37f
10:10am 7 9 mph 1010.8mb 36f
10:00am 7 13 mph 1011.2mb 36f
9:50am 7 10 mph 1011.2mb 36f
9:40am 7 10 mph 1011.2mb 36f
9:30am 5 11 mph 1011.2mb 36f
9:20am 7 11 mph 1011.2mb 36f
9:10am 7 13 mph 1011.2mb 36f
9:00am 9 13 mph 1011.2mb 36f
8:50am 6 11 mph 1011.2mb 36f
8:40am 8 10 mph 1011.2mb 36f
8:30am 5 10 mph 1011.2mb 36f
8:20am 5 8 mph 1011.2mb 35f
8:10am 5 9 mph 1011.2mb 35f
8:00am 7 11 mph 1011.2mb 35f
7:50am 6 13 mph 1011.2mb 35f
7:40am 7 13 mph 1011.2mb 35f
7:30am 7 13 mph 1011.2mb 35f
7:20am 8 13 mph 1011.2mb 35f
7:10am 7 11 mph 1011.2mb 35f
7:00am 6 11 mph 1011.2mb 35f
6:50am 7 13 mph 1010.8mb 35f
6:40am 8 13 mph 1010.8mb 35f
6:30am 8 15 mph 1010.8mb 35f
6:20am 10 14 mph 1010.8mb 35f
6:10am 10 15 mph 1010.8mb 35f
6:00am 9 14 mph 1010.8mb 35f
5:50am 10 14 mph 1010.8mb 35f
5:40am 9 13 mph 1010.8mb 35f
5:30am 7 13 mph 1010.5mb 35f
5:20am 8 13 mph 1010.8mb 35f
5:10am 7 11 mph 1010.8mb 35f
5:00am 6 9 mph 1010.8mb 35f
4:50am 7 9 mph 1010.8mb 35f
4:40am 6 8 mph 1010.8mb 35f
4:30am 6 10 mph 1010.8mb 35f
4:20am 6 11 mph 1010.8mb 36f
4:10am 9 17 mph 1010.8mb 35f
4:00am 10 18 mph 1010.5mb 36f
3:50am 9 18 mph 1010.5mb 35f
3:40am 13 20 mph 1010.5mb 35f
3:30am 11 17 mph 1010.5mb 36f
3:20am 13 18 mph 1010.5mb 36f
3:10am 9 15 mph 1010.5mb 36f
3:00am 9 17 mph 1010.5mb 36f
2:50am 8 15 mph 1010.5mb 36f
2:40am 7 13 mph 1010.5mb 36f
2:30am 9 17 mph 1010.5mb 36f
2:20am 8 17 mph 1010.5mb 36f
2:10am 7 15 mph 1010.8mb 36f
2:00am 5 13 mph 1010.8mb 35f
1:50am 6 13 mph 1010.8mb 35f
1:40am 5 10 mph 1010.8mb 35f
1:30am 6 14 mph 1010.5mb 35f
1:20am 8 14 mph 1010.2mb 35f
1:10am 7 14 mph 1010.5mb 36f
1:00am 7 13 mph 1010.8mb 36f
12:50am 7 15 mph 1010.5mb 35f
12:40am 6 11 mph 1010.5mb 35f
12:30am 6 11 mph 1010.5mb 35f
12:20am 6 9 mph 1010.8mb 35f
12:10am 8 13 mph 1010.8mb 35f
12:00am 6 10 mph 1010.8mb 35f
Sun 12/21 11:50pm 7 10 mph 1010.8mb 35f
11:40pm 8 11 mph 1010.8mb 35f
11:30pm 3 7 mph 1010.8mb 34f
11:20pm 5 7 mph 1010.8mb 34f
11:10pm 5 7 mph 1010.8mb 34f
11:00pm 3 6 mph 1011.2mb 34f
10:50pm 3 7 mph 1011.2mb 34f
10:40pm 3 7 mph 1011.2mb 35f
10:30pm 5 8 mph 1011.2mb 35f
10:20pm 5 9 mph 1011.2mb 34f
10:10pm 2 6 mph 1011.2mb 35f
10:00pm 3 8 mph 1011.5mb 33f
9:50pm  -  mph 1011.5mb 33f
9:40pm  -  2 mph 1011.5mb 34f
9:30pm  -  3 mph 1011.5mb 34f
9:20pm  -  3 mph 1011.2mb 34f
9:10pm 2 5 mph 1011.2mb 34f
9:00pm 1 6 mph 1011.2mb 34f
8:50pm 2 5 mph 1011.5mb 34f
8:40pm 3 5 mph 1011.5mb 34f
8:30pm 3 6 mph 1011.5mb 34f
8:20pm 2 5 mph 1011.5mb 34f
8:10pm 2 7 mph 1011.5mb 34f